CAPE
0 0 0 0 0 0 0 0 0 0 0 0 0 0 0 0 0 0 0 0 0 0
0 0 0 0 0 0 0 0 0 0 0 0 0 0 0 0 0 0 0 0 0 0
0 0 0 0 0 0 0 0 0 0 0 0 0 0 0 0 0 0 0 0 0 0
0 0 0 0 0 0 0 0 0 0 0 0 0 0 0 0 0 0 0 0 0 0
0 0 0 0 0 0 0 0 0 0 0 0 0 0 0 0 0 0 0 0 0 0
0 0 0 0 0 0 0 0 0 0 0 0 0 0 0 0 0 0 0 0 0 0
0 0 0 0 0 0 0 0 0 0 0 0 0 0 0 0 0 0 0 0 0 0
0 0 0 0 0 0 0 0 0 0 0 0 0 0 0 0 0 0 0 0 0 0
0 0 0 0 0 0 0 0 0 0 0 0 0 0 0 0 0 0 0 0 0 0
0 0 0 0 0 0 0 0 0 0 0 0 0 0 0 0 0 0 0 0 0 0
0 0 0 0 0 0 0 0 0 0 0 0 0 0 0 0 0 0 0 0 0 0
0 0 0 0 0 0 0 0 0 0 0 0 0 1 0 0 0 0 0 0 0 0
0 0 0 0 0 0 0 0 0 0 0 0 0 0 0 0 0 0 0 0 0 0
0 0 0 0 0 0 0 0 0 0 0 0 0 0 0 0 0 0 0 0 0 0
CIN
0 0 0 0 0 0 0 0 0 0 0 0 0 0 0 0 0 0 0 0 0 0
0 0 0 0 0 0 0 0 0 0 0 0 0 0 0 0 0 0 0 0 0 0
0 0 0 0 0 0 0 0 0 0 0 0 0 0 0 0 0 0 0 0 0 0
0 0 0 0 0 0 0 0 0 0 0 0 0 0 0 0 0 0 0 0 0 0
0 0 0 0 0 0 0 0 0 0 0 0 0 0 0 0 0 0 0 0 0 0
0 0 0 0 0 0 0 0 0 0 0 0 0 0 0 0 0 0 0 0 0 0
0 0 0 0 0 0 0 0 0 0 0 0 0 0 0 0 0 0 0 0 0 0
0 0 0 0 0 0 0 0 0 0 0 0 0 0 0 0 0 0 0 0 0 0
0 0 0 0 0 0 0 0 0 0 0 0 0 -1 0 0 0 0 0 0 0 0
0 0 0 0 0 0 0 0 0 0 0 0 0 -1 -1 0 0 0 0 0 0 0
0 0 0 0 0 0 0 0 0 0 0 0 0 -1 -1 0 0 0 0 0 0 0
0 0 0 0 0 0 0 0 0 0 0 0 0 0 0 0 0 0 0 0 0 0
0 0 0 0 0 0 0 0 0 0 0 0 0 0 0 0 0 0 0 0 0 0
0 0 0 0 0 0 0 0 0 0 0 0 0 0 0 0 0 0 0 0 0 0
Wind_Speed
18 18 18 19 19 21 22 23 23 23 23 24 25 25 24 25 25 26 26 26 26 26
19 19 19 20 20 21 22 22 23 24 24 24 25 25 24 25 25 25 25 26 26 26
19 19 19 19 21 22 22 23 24 24 24 25 25 25 25 25 25 25 25 26 27 28
18 18 18 19 21 22 23 24 25 25 25 25 25 26 25 24 25 25 26 27 28 30
17 18 18 19 21 22 23 24 25 25 23 25 25 25 25 25 25 26 27 29 30 31
18 18 18 19 20 21 23 24 24 24 24 24 25 26 26 26 26 27 28 29 31 32
18 17 18 18 19 21 23 23 23 23 22 23 24 26 26 27 27 28 29 30 31 33
17 17 17 18 19 21 23 22 23 21 21 24 25 27 28 27 28 29 30 31 33 32
17 17 18 19 20 21 21 21 20 20 22 24 26 28 29 28 28 30 32 33 34 34
18 18 19 19 20 21 22 21 20 19 21 23 26 29 30 31 30 31 33 34 36 37
18 18 18 19 20 21 20 20 21 20 21 23 26 29 32 32 31 32 34 34 36 38
17 18 19 19 19 20 18 18 18 19 22 25 27 30 33 33 32 34 35 35 37 39
17 17 16 16 18 17 17 16 18 21 24 25 28 31 33 34 34 35 37 36 38 39
14 13 14 14 15 15 15 18 20 21 24 26 28 30 33 35 35 36 37 37 38 38
Wind_Direction
344 344 344 343 343 343 344 345 345 346 347 347 344 343 344 344 344 345 345 345 347 345
339 339 340 342 344 345 345 345 345 346 345 345 345 344 344 344 343 345 346 347 346 344
335 338 340 342 343 344 345 345 343 343 341 342 341 342 343 343 344 345 345 344 342 342
333 337 339 340 341 342 342 342 340 339 339 340 340 340 340 341 342 342 343 343 341 339
330 332 333 335 338 340 340 340 339 340 343 343 343 343 342 342 342 342 340 339 338 337
324 326 328 331 334 337 338 339 341 341 342 343 344 344 343 341 340 341 341 340 339 339
322 324 326 329 332 334 337 338 338 340 343 344 345 345 343 342 341 341 341 340 340 339
320 322 324 326 329 331 335 336 335 338 340 339 341 342 341 341 341 340 339 339 340 340
314 317 319 321 324 329 333 336 338 337 336 337 340 341 343 342 340 339 336 336 337 337
310 314 316 318 321 326 329 333 336 337 333 336 338 341 343 340 339 337 336 336 336 335
306 310 314 318 319 323 331 328 330 335 334 337 338 342 341 341 340 339 338 337 336 335
305 308 313 316 318 325 331 329 337 335 332 334 337 343 342 340 339 338 337 337 338 337
308 310 314 318 321 330 333 335 338 332 337 341 339 342 341 341 338 337 337 338 338 338
316 321 323 325 332 337 339 334 332 340 341 342 341 340 342 342 341 339 338 338 339 340